iso_date,epoch_date,Year,Hour,Min,DOY,POS_DOY,Lat,Lon,BP,Ts,Ta,has_bp,has_ts,has_ta,BuoyID,Buoy_Type,Buoy_Owner,Logistics,Hemisphere
2020-12-04T08:03:59Z,1607069039,2020,8,4,339.3361,339.3361,-90.0,-180.0,1002.3,3.97,-999.0,yes,yes,no,300234068241480,BD2GHI,AOML,BJARNI_SAEMUN,North
2020-12-04T09:03:01Z,1607072581,2020,9,3,339.3771,339.3771,64.997,-8.427,1003.6,3.99,-999.0,yes,yes,no,300234068241480,BD2GHI,AOML,BJARNI_SAEMUN,North
2020-12-04T10:59:57Z,1607079597,2020,11,0,339.4583,339.4583,64.987,-8.443,1005.9,3.98,-999.0,yes,yes,no,300234068241480,BD2GHI,AOML,BJARNI_SAEMUN,North
2020-12-04T12:04:01Z,1607083442,2020,12,4,339.5028,339.5028,64.986,-8.467,1007.0,3.97,-999.0,yes,yes,no,300234068241480,BD2GHI,AOML,BJARNI_SAEMUN,North
2020-12-04T13:03:04Z,1607086984,2020,13,3,339.5438,339.5438,64.985,-8.486,1008.2,3.97,-999.0,yes,yes,no,300234068241480,BD2GHI,AOML,BJARNI_SAEMUN,North
2020-12-04T13:59:57Z,1607090397,2020,14,0,339.5833,339.5833,64.986,-8.505,1008.8,3.97,-999.0,yes,yes,no,300234068241480,BD2GHI,AOML,BJARNI_SAEMUN,North
2020-12-04T15:00:00Z,1607094000,2020,15,0,339.625,339.625,64.988,-8.525,1010.1,3.95,-999.0,yes,yes,no,300234068241480,BD2GHI,AOML,BJARNI_SAEMUN,North
2020-12-04T16:00:02Z,1607097603,2020,16,0,339.6667,339.6667,64.991,-8.543,1010.7,3.94,-999.0,yes,yes,no,300234068241480,BD2GHI,AOML,BJARNI_SAEMUN,North
2020-12-04T16:59:57Z,1607101197,2020,17,0,339.7083,339.7083,64.995,-8.551,1011.5,3.92,-999.0,yes,yes,no,300234068241480,BD2GHI,AOML,BJARNI_SAEMUN,North
2020-12-04T18:04:01Z,1607105042,2020,18,4,339.7528,339.7528,-90.0,-180.0,1012.6,3.92,-999.0,yes,yes,no,300234068241480,BD2GHI,AOML,BJARNI_SAEMUN,North
2020-12-04T19:03:04Z,1607108584,2020,19,3,339.7938,339.7938,64.993,-8.555,1013.5,3.91,-999.0,yes,yes,no,300234068241480,BD2GHI,AOML,BJARNI_SAEMUN,North
2020-12-04T20:03:59Z,1607112239,2020,20,4,339.8361,339.8361,64.988,-8.552,1014.3,3.9,-999.0,yes,yes,no,300234068241480,BD2GHI,AOML,BJARNI_SAEMUN,North
2020-12-04T21:02:00Z,1607115721,2020,21,2,339.8764,339.8764,64.985,-8.551,1015.1,3.9,-999.0,yes,yes,no,300234068241480,BD2GHI,AOML,BJARNI_SAEMUN,North
2020-12-04T22:00:02Z,1607119203,2020,22,0,339.9167,339.9167,64.978,-8.563,1015.6,3.89,-999.0,yes,yes,no,300234068241480,BD2GHI,AOML,BJARNI_SAEMUN,North
2020-12-04T22:59:57Z,1607122797,2020,23,0,339.9583,339.9583,64.975,-8.581,1016.1,3.91,-999.0,yes,yes,no,300234068241480,BD2GHI,AOML,BJARNI_SAEMUN,North
2020-12-05T00:04:01Z,1607126642,2020,0,4,340.0028,340.0028,64.976,-8.604,1016.7,3.91,-999.0,yes,yes,no,300234068241480,BD2GHI,AOML,BJARNI_SAEMUN,North
2020-12-05T01:00:02Z,1607130003,2020,1,0,340.0417,340.0417,64.98,-8.616,1017.3,3.91,-999.0,yes,yes,no,300234068241480,BD2GHI,AOML,BJARNI_SAEMUN,North
2020-12-05T01:59:57Z,1607133597,2020,2,0,340.0833,340.0833,64.982,-8.638,1017.5,3.91,-999.0,yes,yes,no,300234068241480,BD2GHI,AOML,BJARNI_SAEMUN,North
2020-12-05T03:03:01Z,1607137381,2020,3,3,340.1271,340.1271,64.988,-8.655,1018.0,3.9,-999.0,yes,yes,no,300234068241480,BD2GHI,AOML,BJARNI_SAEMUN,North
2020-12-05T04:03:56Z,1607141036,2020,4,4,340.1694,340.1694,64.99,-8.642,1018.0,3.91,-999.0,yes,yes,no,300234068241480,BD2GHI,AOML,BJARNI_SAEMUN,North
2020-12-05T05:03:59Z,1607144639,2020,5,4,340.2111,340.2111,-90.0,-180.0,1017.9,3.92,-999.0,yes,yes,no,300234068241480,BD2GHI,AOML,BJARNI_SAEMUN,North
2020-12-05T06:04:01Z,1607148242,2020,6,4,340.2528,340.2528,-90.0,-180.0,1018.8,3.91,-999.0,yes,yes,no,300234068241480,BD2GHI,AOML,BJARNI_SAEMUN,North
2020-12-05T07:03:56Z,1607151836,2020,7,4,340.2944,340.2944,-90.0,-180.0,1018.7,3.91,-999.0,yes,yes,no,300234068241480,BD2GHI,AOML,BJARNI_SAEMUN,North
2020-12-05T08:03:59Z,1607155439,2020,8,4,340.3361,340.3361,-90.0,-180.0,1019.3,3.92,-999.0,yes,yes,no,300234068241480,BD2GHI,AOML,BJARNI_SAEMUN,North
2020-12-05T09:04:01Z,1607159042,2020,9,4,340.3778,340.3778,-90.0,-180.0,1019.7,3.91,-999.0,yes,yes,no,300234068241480,BD2GHI,AOML,BJARNI_SAEMUN,North
2020-12-05T10:00:02Z,1607162403,2020,10,0,340.4167,340.4167,64.982,-8.633,1019.7,3.91,-999.0,yes,yes,no,300234068241480,BD2GHI,AOML,BJARNI_SAEMUN,North
2020-12-05T10:59:57Z,1607165997,2020,11,0,340.4583,340.4583,64.974,-8.641,1019.8,3.89,-999.0,yes,yes,no,300234068241480,BD2GHI,AOML,BJARNI_SAEMUN,North
2020-12-05T12:00:00Z,1607169600,2020,12,0,340.5,340.5,64.972,-8.661,1019.7,3.89,-999.0,yes,yes,no,300234068241480,BD2GHI,AOML,BJARNI_SAEMUN,North
2020-12-05T13:59:57Z,1607176797,2020,14,0,340.5833,340.5833,64.976,-8.694,1019.5,3.89,-999.0,yes,yes,no,300234068241480,BD2GHI,AOML,BJARNI_SAEMUN,North
2020-12-05T15:00:00Z,1607180400,2020,15,0,340.625,340.625,64.982,-8.704,1019.3,3.88,-999.0,yes,yes,no,300234068241480,BD2GHI,AOML,BJARNI_SAEMUN,North
2020-12-05T16:01:03Z,1607184063,2020,16,1,340.6674,340.6674,64.986,-8.713,1019.3,3.87,-999.0,yes,yes,no,300234068241480,BD2GHI,AOML,BJARNI_SAEMUN,North
2020-12-05T17:02:58Z,1607187779,2020,17,3,340.7104,340.7104,64.992,-8.715,1019.2,3.86,-999.0,yes,yes,no,300234068241480,BD2GHI,AOML,BJARNI_SAEMUN,North
2020-12-05T18:00:00Z,1607191200,2020,18,0,340.75,340.75,64.997,-8.708,1018.9,3.86,-999.0,yes,yes,no,300234068241480,BD2GHI,AOML,BJARNI_SAEMUN,North
2020-12-05T20:00:57Z,1607198458,2020,20,1,340.834,340.834,64.994,-8.68,1019.0,3.84,-999.0,yes,yes,no,300234068241480,BD2GHI,AOML,BJARNI_SAEMUN,North
2020-12-05T21:00:00Z,1607202000,2020,21,0,340.875,340.875,64.992,-8.674,1018.9,3.85,-999.0,yes,yes,no,300234068241480,BD2GHI,AOML,BJARNI_SAEMUN,North
2020-12-05T22:03:56Z,1607205836,2020,22,4,340.9194,340.9194,64.986,-8.663,1018.9,3.83,-999.0,yes,yes,no,300234068241480,BD2GHI,AOML,BJARNI_SAEMUN,North
2020-12-05T23:00:57Z,1607209258,2020,23,1,340.959,340.959,64.98,-8.665,1018.4,3.82,-999.0,yes,yes,no,300234068241480,BD2GHI,AOML,BJARNI_SAEMUN,North
2020-12-06T00:00:00Z,1607212800,2020,0,0,341.0,341.0,64.978,-8.67,1018.1,3.82,-999.0,yes,yes,no,300234068241480,BD2GHI,AOML,BJARNI_SAEMUN,North
2020-12-06T01:00:02Z,1607216403,2020,1,0,341.0417,341.0417,64.977,-8.683,1017.8,3.82,-999.0,yes,yes,no,300234068241480,BD2GHI,AOML,BJARNI_SAEMUN,North
2020-12-06T01:59:57Z,1607219997,2020,2,0,341.0833,341.0833,64.978,-8.696,1017.8,3.81,-999.0,yes,yes,no,300234068241480,BD2GHI,AOML,BJARNI_SAEMUN,North
2020-12-06T03:02:00Z,1607223721,2020,3,2,341.1264,341.1264,64.982,-8.711,1017.3,3.81,-999.0,yes,yes,no,300234068241480,BD2GHI,AOML,BJARNI_SAEMUN,North
2020-12-06T04:00:02Z,1607227203,2020,4,0,341.1667,341.1667,64.984,-8.719,1016.8,3.81,-999.0,yes,yes,no,300234068241480,BD2GHI,AOML,BJARNI_SAEMUN,North
2020-12-06T04:59:57Z,1607230797,2020,5,0,341.2083,341.2083,64.987,-8.727,1016.5,3.8,-999.0,yes,yes,no,300234068241480,BD2GHI,AOML,BJARNI_SAEMUN,North
2020-12-06T06:00:00Z,1607234400,2020,6,0,341.25,341.25,64.992,-8.729,1016.0,3.79,-999.0,yes,yes,no,300234068241480,BD2GHI,AOML,BJARNI_SAEMUN,North
2020-12-06T07:01:03Z,1607238063,2020,7,1,341.2924,341.2924,64.997,-8.724,1016.0,3.81,-999.0,yes,yes,no,300234068241480,BD2GHI,AOML,BJARNI_SAEMUN,North
2020-12-06T07:59:57Z,1607241597,2020,8,0,341.3333,341.3333,64.999,-8.708,1015.9,3.79,-999.0,yes,yes,no,300234068241480,BD2GHI,AOML,BJARNI_SAEMUN,North
2020-12-06T09:00:00Z,1607245200,2020,9,0,341.375,341.375,64.996,-8.692,1016.1,3.81,-999.0,yes,yes,no,300234068241480,BD2GHI,AOML,BJARNI_SAEMUN,North
2020-12-06T10:00:02Z,1607248803,2020,10,0,341.4167,341.4167,64.99,-8.682,1015.8,3.81,-999.0,yes,yes,no,300234068241480,BD2GHI,AOML,BJARNI_SAEMUN,North
2020-12-06T10:59:57Z,1607252397,2020,11,0,341.4583,341.4583,64.983,-8.677,1015.7,3.8,-999.0,yes,yes,no,300234068241480,BD2GHI,AOML,BJARNI_SAEMUN,North
2020-12-06T12:00:00Z,1607256000,2020,12,0,341.5,341.5,64.977,-8.681,1015.3,3.8,-999.0,yes,yes,no,300234068241480,BD2GHI,AOML,BJARNI_SAEMUN,North
2020-12-06T13:00:02Z,1607259603,2020,13,0,341.5417,341.5417,64.973,-8.693,1015.1,3.79,-999.0,yes,yes,no,300234068241480,BD2GHI,AOML,BJARNI_SAEMUN,North
2020-12-06T13:59:57Z,1607263197,2020,14,0,341.5833,341.5833,64.971,-8.709,1015.0,3.79,-999.0,yes,yes,no,300234068241480,BD2GHI,AOML,BJARNI_SAEMUN,North
2020-12-06T15:00:00Z,1607266800,2020,15,0,341.625,341.625,64.973,-8.726,1014.9,3.78,-999.0,yes,yes,no,300234068241480,BD2GHI,AOML,BJARNI_SAEMUN,North
2020-12-06T16:00:02Z,1607270403,2020,16,0,341.6667,341.6667,64.976,-8.745,1015.0,3.77,-999.0,yes,yes,no,300234068241480,BD2GHI,AOML,BJARNI_SAEMUN,North
2020-12-06T16:59:57Z,1607273997,2020,17,0,341.7083,341.7083,64.982,-8.76,1015.3,3.77,-999.0,yes,yes,no,300234068241480,BD2GHI,AOML,BJARNI_SAEMUN,North
2020-12-06T18:00:00Z,1607277600,2020,18,0,341.75,341.75,64.989,-8.768,1015.4,3.77,-999.0,yes,yes,no,300234068241480,BD2GHI,AOML,BJARNI_SAEMUN,North
2020-12-06T19:00:02Z,1607281203,2020,19,0,341.7917,341.7917,64.997,-8.763,1015.5,3.77,-999.0,yes,yes,no,300234068241480,BD2GHI,AOML,BJARNI_SAEMUN,North
2020-12-06T20:03:59Z,1607285039,2020,20,4,341.8361,341.8361,64.998,-8.751,1015.5,3.77,-999.0,yes,yes,no,300234068241480,BD2GHI,AOML,BJARNI_SAEMUN,North
2020-12-06T21:00:00Z,1607288400,2020,21,0,341.875,341.875,64.996,-8.742,1015.4,3.76,-999.0,yes,yes,no,300234068241480,BD2GHI,AOML,BJARNI_SAEMUN,North
2020-12-06T22:00:02Z,1607292003,2020,22,0,341.9167,341.9167,64.991,-8.735,1015.3,3.73,-999.0,yes,yes,no,300234068241480,BD2GHI,AOML,BJARNI_SAEMUN,North
2020-12-06T22:59:57Z,1607295597,2020,23,0,341.9583,341.9583,64.983,-8.733,1015.3,3.71,-999.0,yes,yes,no,300234068241480,BD2GHI,AOML,BJARNI_SAEMUN,North
2020-12-07T00:00:00Z,1607299200,2020,0,0,342.0,342.0,64.977,-8.736,1015.5,3.73,-999.0,yes,yes,no,300234068241480,BD2GHI,AOML,BJARNI_SAEMUN,North
2020-12-07T01:01:03Z,1607302863,2020,1,1,342.0424,342.0424,64.973,-8.746,1015.4,3.73,-999.0,yes,yes,no,300234068241480,BD2GHI,AOML,BJARNI_SAEMUN,North
2020-12-07T01:59:57Z,1607306397,2020,2,0,342.0833,342.0833,64.972,-8.763,1015.4,3.71,-999.0,yes,yes,no,300234068241480,BD2GHI,AOML,BJARNI_SAEMUN,North
2020-12-07T03:00:00Z,1607310000,2020,3,0,342.125,342.125,64.974,-8.784,1015.4,3.72,-999.0,yes,yes,no,300234068241480,BD2GHI,AOML,BJARNI_SAEMUN,North
2020-12-07T04:00:02Z,1607313603,2020,4,0,342.1667,342.1667,64.978,-8.801,1015.5,3.73,-999.0,yes,yes,no,300234068241480,BD2GHI,AOML,BJARNI_SAEMUN,North
2020-12-07T04:59:57Z,1607317197,2020,5,0,342.2083,342.2083,64.983,-8.816,1015.6,3.72,-999.0,yes,yes,no,300234068241480,BD2GHI,AOML,BJARNI_SAEMUN,North
2020-12-07T06:00:00Z,1607320800,2020,6,0,342.25,342.25,64.989,-8.826,1015.7,3.7,-999.0,yes,yes,no,300234068241480,BD2GHI,AOML,BJARNI_SAEMUN,North
2020-12-07T07:00:02Z,1607324403,2020,7,0,342.2917,342.2917,64.993,-8.827,1016.0,3.69,-999.0,yes,yes,no,300234068241480,BD2GHI,AOML,BJARNI_SAEMUN,North
2020-12-07T07:59:57Z,1607327997,2020,8,0,342.3333,342.3333,64.998,-8.82,1016.4,3.69,-999.0,yes,yes,no,300234068241480,BD2GHI,AOML,BJARNI_SAEMUN,North
2020-12-07T09:00:00Z,1607331600,2020,9,0,342.375,342.375,64.999,-8.808,1016.2,3.7,-999.0,yes,yes,no,300234068241480,BD2GHI,AOML,BJARNI_SAEMUN,North
2020-12-07T10:00:02Z,1607335203,2020,10,0,342.4167,342.4167,64.997,-8.799,1016.5,3.69,-999.0,yes,yes,no,300234068241480,BD2GHI,AOML,BJARNI_SAEMUN,North
2020-12-07T10:59:57Z,1607338797,2020,11,0,342.4583,342.4583,64.992,-8.791,1016.6,3.69,-999.0,yes,yes,no,300234068241480,BD2GHI,AOML,BJARNI_SAEMUN,North
2020-12-07T12:00:00Z,1607342400,2020,12,0,342.5,342.5,64.986,-8.786,1016.7,3.68,-999.0,yes,yes,no,300234068241480,BD2GHI,AOML,BJARNI_SAEMUN,North
2020-12-07T13:00:02Z,1607346003,2020,13,0,342.5417,342.5417,64.981,-8.791,1016.7,3.67,-999.0,yes,yes,no,300234068241480,BD2GHI,AOML,BJARNI_SAEMUN,North
2020-12-07T13:59:57Z,1607349597,2020,14,0,342.5833,342.5833,64.977,-8.804,1016.6,3.67,-999.0,yes,yes,no,300234068241480,BD2GHI,AOML,BJARNI_SAEMUN,North
2020-12-07T15:00:00Z,1607353200,2020,15,0,342.625,342.625,64.973,-8.823,1016.4,3.67,-999.0,yes,yes,no,300234068241480,BD2GHI,AOML,BJARNI_SAEMUN,North
2020-12-07T16:00:02Z,1607356803,2020,16,0,342.6667,342.6667,64.977,-8.843,1016.5,3.66,-999.0,yes,yes,no,300234068241480,BD2GHI,AOML,BJARNI_SAEMUN,North
2020-12-07T16:59:57Z,1607360397,2020,17,0,342.7083,342.7083,64.981,-8.862,1016.7,3.67,-999.0,yes,yes,no,300234068241480,BD2GHI,AOML,BJARNI_SAEMUN,North
2020-12-07T18:00:00Z,1607364000,2020,18,0,342.75,342.75,64.984,-8.876,1016.8,3.67,-999.0,yes,yes,no,300234068241480,BD2GHI,AOML,BJARNI_SAEMUN,North
2020-12-07T19:59:57Z,1607371197,2020,20,0,342.8333,342.8333,64.994,-8.888,1016.7,3.68,-999.0,yes,yes,no,300234068241480,BD2GHI,AOML,BJARNI_SAEMUN,North
2020-12-07T21:00:00Z,1607374800,2020,21,0,342.875,342.875,64.996,-8.883,1016.7,3.67,-999.0,yes,yes,no,300234068241480,BD2GHI,AOML,BJARNI_SAEMUN,North
2020-12-07T22:00:02Z,1607378403,2020,22,0,342.9167,342.9167,64.996,-8.873,1016.6,3.67,-999.0,yes,yes,no,300234068241480,BD2GHI,AOML,BJARNI_SAEMUN,North
2020-12-07T22:59:57Z,1607381997,2020,23,0,342.9583,342.9583,64.993,-8.862,1016.7,3.66,-999.0,yes,yes,no,300234068241480,BD2GHI,AOML,BJARNI_SAEMUN,North
2020-12-08T00:00:00Z,1607385600,2020,0,0,343.0,343.0,64.987,-8.854,1016.4,3.67,-999.0,yes,yes,no,300234068241480,BD2GHI,AOML,BJARNI_SAEMUN,North
2020-12-08T01:00:02Z,1607389203,2020,1,0,343.0417,343.0417,64.981,-8.854,1016.3,3.67,-999.0,yes,yes,no,300234068241480,BD2GHI,AOML,BJARNI_SAEMUN,North
2020-12-08T01:59:57Z,1607392797,2020,2,0,343.0833,343.0833,64.976,-8.864,1016.0,3.65,-999.0,yes,yes,no,300234068241480,BD2GHI,AOML,BJARNI_SAEMUN,North
2020-12-08T03:00:00Z,1607396400,2020,3,0,343.125,343.125,64.972,-8.88,1015.6,3.65,-999.0,yes,yes,no,300234068241480,BD2GHI,AOML,BJARNI_SAEMUN,North
2020-12-08T04:00:02Z,1607400003,2020,4,0,343.1667,343.1667,64.971,-8.898,1015.4,3.64,-999.0,yes,yes,no,300234068241480,BD2GHI,AOML,BJARNI_SAEMUN,North
2020-12-08T04:59:57Z,1607403597,2020,5,0,343.2083,343.2083,64.974,-8.919,1015.1,3.64,-999.0,yes,yes,no,300234068241480,BD2GHI,AOML,BJARNI_SAEMUN,North
2020-12-08T06:00:00Z,1607407200,2020,6,0,343.25,343.25,64.98,-8.942,1015.2,3.64,-999.0,yes,yes,no,300234068241480,BD2GHI,AOML,BJARNI_SAEMUN,North
2020-12-08T07:02:03Z,1607410924,2020,7,2,343.2931,343.2931,64.985,-8.957,1015.2,3.65,-999.0,yes,yes,no,300234068241480,BD2GHI,AOML,BJARNI_SAEMUN,North
2020-12-08T07:59:57Z,1607414397,2020,8,0,343.3333,343.3333,64.99,-8.961,1015.0,3.64,-999.0,yes,yes,no,300234068241480,BD2GHI,AOML,BJARNI_SAEMUN,North
2020-12-08T09:00:00Z,1607418000,2020,9,0,343.375,343.375,64.995,-8.959,1014.6,3.63,-999.0,yes,yes,no,300234068241480,BD2GHI,AOML,BJARNI_SAEMUN,North
2020-12-08T10:00:02Z,1607421603,2020,10,0,343.4167,343.4167,64.997,-8.952,1014.1,3.64,-999.0,yes,yes,no,300234068241480,BD2GHI,AOML,BJARNI_SAEMUN,North
2020-12-08T10:59:57Z,1607425197,2020,11,0,343.4583,343.4583,64.996,-8.942,1013.8,3.64,-999.0,yes,yes,no,300234068241480,BD2GHI,AOML,BJARNI_SAEMUN,North
2020-12-08T12:00:00Z,1607428800,2020,12,0,343.5,343.5,64.99,-8.937,1013.3,3.63,-999.0,yes,yes,no,300234068241480,BD2GHI,AOML,BJARNI_SAEMUN,North
2020-12-08T13:00:02Z,1607432403,2020,13,0,343.5417,343.5417,64.985,-8.938,1012.9,3.62,-999.0,yes,yes,no,300234068241480,BD2GHI,AOML,BJARNI_SAEMUN,North
2020-12-08T14:03:59Z,1607436239,2020,14,4,343.5861,343.5861,64.978,-8.94,1012.2,3.63,-999.0,yes,yes,no,300234068241480,BD2GHI,AOML,BJARNI_SAEMUN,North
2020-12-08T15:00:00Z,1607439600,2020,15,0,343.625,343.625,64.974,-8.953,1011.9,3.62,-999.0,yes,yes,no,300234068241480,BD2GHI,AOML,BJARNI_SAEMUN,North
2020-12-08T16:00:02Z,1607443203,2020,16,0,343.6667,343.6667,64.971,-8.974,1011.4,3.62,-999.0,yes,yes,no,300234068241480,BD2GHI,AOML,BJARNI_SAEMUN,North
2020-12-08T16:59:57Z,1607446797,2020,17,0,343.7083,343.7083,64.971,-8.996,1011.4,3.62,-999.0,yes,yes,no,300234068241480,BD2GHI,AOML,BJARNI_SAEMUN,North
2020-12-08T18:02:00Z,1607450521,2020,18,2,343.7514,343.7514,64.973,-9.018,1011.1,3.6,-999.0,yes,yes,no,300234068241480,BD2GHI,AOML,BJARNI_SAEMUN,North
2020-12-08T19:00:02Z,1607454003,2020,19,0,343.7917,343.7917,64.98,-9.032,1010.4,3.61,-999.0,yes,yes,no,300234068241480,BD2GHI,AOML,BJARNI_SAEMUN,North
2020-12-08T19:59:57Z,1607457597,2020,20,0,343.8333,343.8333,64.984,-9.04,1009.9,3.62,-999.0,yes,yes,no,300234068241480,BD2GHI,AOML,BJARNI_SAEMUN,North
2020-12-08T21:00:00Z,1607461200,2020,21,0,343.875,343.875,64.987,-9.041,1009.5,3.6,-999.0,yes,yes,no,300234068241480,BD2GHI,AOML,BJARNI_SAEMUN,North
2020-12-08T22:00:02Z,1607464803,2020,22,0,343.9167,343.9167,64.988,-9.035,1009.1,3.6,-999.0,yes,yes,no,300234068241480,BD2GHI,AOML,BJARNI_SAEMUN,North
2020-12-08T22:59:57Z,1607468397,2020,23,0,343.9583,343.9583,64.987,-9.018,1008.5,3.6,-999.0,yes,yes,no,300234068241480,BD2GHI,AOML,BJARNI_SAEMUN,North
2020-12-09T00:00:00Z,1607472000,2020,0,0,344.0,344.0,64.982,-9.008,1008.2,3.6,-999.0,yes,yes,no,300234068241480,BD2GHI,AOML,BJARNI_SAEMUN,North
2020-12-09T01:01:03Z,1607475663,2020,1,1,344.0424,344.0424,64.977,-9.006,1007.6,3.6,-999.0,yes,yes,no,300234068241480,BD2GHI,AOML,BJARNI_SAEMUN,North
2020-12-09T01:59:57Z,1607479197,2020,2,0,344.0833,344.0833,64.969,-9.006,1006.7,3.58,-999.0,yes,yes,no,300234068241480,BD2GHI,AOML,BJARNI_SAEMUN,North
2020-12-09T03:00:00Z,1607482800,2020,3,0,344.125,344.125,64.963,-9.017,1005.9,3.58,-999.0,yes,yes,no,300234068241480,BD2GHI,AOML,BJARNI_SAEMUN,North
2020-12-09T04:00:02Z,1607486403,2020,4,0,344.1667,344.1667,64.961,-9.039,1005.2,3.58,-999.0,yes,yes,no,300234068241480,BD2GHI,AOML,BJARNI_SAEMUN,North
2020-12-09T04:59:57Z,1607489997,2020,5,0,344.2083,344.2083,64.965,-9.057,1004.8,3.58,-999.0,yes,yes,no,300234068241480,BD2GHI,AOML,BJARNI_SAEMUN,North
2020-12-09T06:01:00Z,1607493660,2020,6,1,344.2507,344.2507,64.97,-9.068,1004.1,3.58,-999.0,yes,yes,no,300234068241480,BD2GHI,AOML,BJARNI_SAEMUN,North
2020-12-09T07:00:02Z,1607497203,2020,7,0,344.2917,344.2917,64.974,-9.08,1003.3,3.57,-999.0,yes,yes,no,300234068241480,BD2GHI,AOML,BJARNI_SAEMUN,North
2020-12-09T07:59:57Z,1607500797,2020,8,0,344.3333,344.3333,64.981,-9.087,1002.8,3.57,-999.0,yes,yes,no,300234068241480,BD2GHI,AOML,BJARNI_SAEMUN,North
2020-12-09T09:00:00Z,1607504400,2020,9,0,344.375,344.375,64.985,-9.085,1002.6,3.57,-999.0,yes,yes,no,300234068241480,BD2GHI,AOML,BJARNI_SAEMUN,North
2020-12-09T10:00:02Z,1607508003,2020,10,0,344.4167,344.4167,64.987,-9.082,1002.1,3.57,-999.0,yes,yes,no,300234068241480,BD2GHI,AOML,BJARNI_SAEMUN,North
2020-12-09T10:59:57Z,1607511597,2020,11,0,344.4583,344.4583,64.986,-9.071,1001.6,3.57,-999.0,yes,yes,no,300234068241480,BD2GHI,AOML,BJARNI_SAEMUN,North
2020-12-09T12:00:00Z,1607515200,2020,12,0,344.5,344.5,64.983,-9.061,1001.2,3.57,-999.0,yes,yes,no,300234068241480,BD2GHI,AOML,BJARNI_SAEMUN,North
2020-12-09T13:00:02Z,1607518803,2020,13,0,344.5417,344.5417,64.978,-9.059,1000.6,3.57,-999.0,yes,yes,no,300234068241480,BD2GHI,AOML,BJARNI_SAEMUN,North
2020-12-09T13:59:57Z,1607522397,2020,14,0,344.5833,344.5833,64.972,-9.07,1000.0,3.57,-999.0,yes,yes,no,300234068241480,BD2GHI,AOML,BJARNI_SAEMUN,North
2020-12-09T15:00:00Z,1607526000,2020,15,0,344.625,344.625,64.972,-9.083,999.5,3.57,-999.0,yes,yes,no,300234068241480,BD2GHI,AOML,BJARNI_SAEMUN,North
2020-12-09T16:00:02Z,1607529603,2020,16,0,344.6667,344.6667,64.975,-9.096,998.9,3.57,-999.0,yes,yes,no,300234068241480,BD2GHI,AOML,BJARNI_SAEMUN,North
2020-12-09T16:59:57Z,1607533197,2020,17,0,344.7083,344.7083,64.98,-9.109,998.5,3.57,-999.0,yes,yes,no,300234068241480,BD2GHI,AOML,BJARNI_SAEMUN,North
2020-12-09T18:00:00Z,1607536800,2020,18,0,344.75,344.75,64.983,-9.121,998.1,3.57,-999.0,yes,yes,no,300234068241480,BD2GHI,AOML,BJARNI_SAEMUN,North
2020-12-09T19:01:03Z,1607540463,2020,19,1,344.7924,344.7924,64.988,-9.134,997.8,3.57,-999.0,yes,yes,no,300234068241480,BD2GHI,AOML,BJARNI_SAEMUN,North
2020-12-09T19:59:57Z,1607543997,2020,20,0,344.8333,344.8333,64.993,-9.144,997.3,3.56,-999.0,yes,yes,no,300234068241480,BD2GHI,AOML,BJARNI_SAEMUN,North
2020-12-09T21:00:00Z,1607547600,2020,21,0,344.875,344.875,64.998,-9.148,996.6,3.57,-999.0,yes,yes,no,300234068241480,BD2GHI,AOML,BJARNI_SAEMUN,North
2020-12-09T22:00:02Z,1607551203,2020,22,0,344.9167,344.9167,65.0,-9.147,995.9,3.56,-999.0,yes,yes,no,300234068241480,BD2GHI,AOML,BJARNI_SAEMUN,North
2020-12-09T23:00:57Z,1607554858,2020,23,1,344.959,344.959,64.998,-9.139,995.3,3.56,-999.0,yes,yes,no,300234068241480,BD2GHI,AOML,BJARNI_SAEMUN,North
2020-12-10T00:01:00Z,1607558460,2020,0,1,345.0007,345.0007,64.998,-9.135,994.7,3.56,-999.0,yes,yes,no,300234068241480,BD2GHI,AOML,BJARNI_SAEMUN,North
2020-12-10T01:00:02Z,1607562003,2020,1,0,345.0417,345.0417,64.997,-9.143,994.2,3.56,-999.0,yes,yes,no,300234068241480,BD2GHI,AOML,BJARNI_SAEMUN,North
2020-12-10T01:59:57Z,1607565597,2020,2,0,345.0833,345.0833,64.997,-9.147,993.8,3.56,-999.0,yes,yes,no,300234068241480,BD2GHI,AOML,BJARNI_SAEMUN,North
2020-12-10T03:00:00Z,1607569200,2020,3,0,345.125,345.125,64.997,-9.155,993.6,3.56,-999.0,yes,yes,no,300234068241480,BD2GHI,AOML,BJARNI_SAEMUN,North
2020-12-10T04:00:02Z,1607572803,2020,4,0,345.1667,345.1667,65.002,-9.157,993.0,3.56,-999.0,yes,yes,no,300234068241480,BD2GHI,AOML,BJARNI_SAEMUN,North
2020-12-10T05:03:59Z,1607576639,2020,5,4,345.2111,345.2111,65.009,-9.157,992.5,3.56,-999.0,yes,yes,no,300234068241480,BD2GHI,AOML,BJARNI_SAEMUN,North
2020-12-10T06:04:01Z,1607580242,2020,6,4,345.2528,345.2528,65.015,-9.154,991.9,3.55,-999.0,yes,yes,no,300234068241480,BD2GHI,AOML,BJARNI_SAEMUN,North
2020-12-10T07:00:02Z,1607583603,2020,7,0,345.2917,345.2917,65.019,-9.149,991.2,3.55,-999.0,yes,yes,no,300234068241480,BD2GHI,AOML,BJARNI_SAEMUN,North
2020-12-10T09:00:00Z,1607590800,2020,9,0,345.375,345.375,65.025,-9.138,990.5,3.55,-999.0,yes,yes,no,300234068241480,BD2GHI,AOML,BJARNI_SAEMUN,North
2020-12-10T10:03:56Z,1607594636,2020,10,4,345.4194,345.4194,65.001,-9.207,990.3,3.54,-999.0,yes,yes,no,300234068241480,BD2GHI,AOML,BJARNI_SAEMUN,North
2020-12-10T10:59:57Z,1607597997,2020,11,0,345.4583,345.4583,65.025,-9.137,989.8,3.54,-999.0,yes,yes,no,300234068241480,BD2GHI,AOML,BJARNI_SAEMUN,North
2020-12-10T12:00:00Z,1607601600,2020,12,0,345.5,345.5,65.024,-9.14,989.5,3.53,-999.0,yes,yes,no,300234068241480,BD2GHI,AOML,BJARNI_SAEMUN,North
2020-12-10T13:59:57Z,1607608797,2020,14,0,345.5833,345.5833,65.024,-9.145,988.7,3.53,-999.0,yes,yes,no,300234068241480,BD2GHI,AOML,BJARNI_SAEMUN,North
2020-12-10T15:00:00Z,1607612400,2020,15,0,345.625,345.625,65.03,-9.149,988.5,3.52,-999.0,yes,yes,no,300234068241480,BD2GHI,AOML,BJARNI_SAEMUN,North
2020-12-10T16:00:02Z,1607616003,2020,16,0,345.6667,345.6667,65.037,-9.15,988.5,3.52,-999.0,yes,yes,no,300234068241480,BD2GHI,AOML,BJARNI_SAEMUN,North
2020-12-10T16:59:57Z,1607619597,2020,17,0,345.7083,345.7083,65.044,-9.15,988.7,3.52,-999.0,yes,yes,no,300234068241480,BD2GHI,AOML,BJARNI_SAEMUN,North
2020-12-10T18:00:00Z,1607623200,2020,18,0,345.75,345.75,65.05,-9.15,989.0,3.52,-999.0,yes,yes,no,300234068241480,BD2GHI,AOML,BJARNI_SAEMUN,North
2020-12-10T19:00:02Z,1607626803,2020,19,0,345.7917,345.7917,65.056,-9.149,989.3,3.51,-999.0,yes,yes,no,300234068241480,BD2GHI,AOML,BJARNI_SAEMUN,North
2020-12-10T19:59:57Z,1607630397,2020,20,0,345.8333,345.8333,65.061,-9.148,989.5,3.52,-999.0,yes,yes,no,300234068241480,BD2GHI,AOML,BJARNI_SAEMUN,North
2020-12-10T21:00:00Z,1607634000,2020,21,0,345.875,345.875,65.064,-9.146,989.8,3.51,-999.0,yes,yes,no,300234068241480,BD2GHI,AOML,BJARNI_SAEMUN,North
2020-12-10T22:03:04Z,1607637784,2020,22,3,345.9188,345.9188,65.063,-9.147,990.1,3.51,-999.0,yes,yes,no,300234068241480,BD2GHI,AOML,BJARNI_SAEMUN,North
2020-12-10T23:03:59Z,1607641439,2020,23,4,345.9611,345.9611,-90.0,-180.0,990.3,3.51,-999.0,yes,yes,no,300234068241480,BD2GHI,AOML,BJARNI_SAEMUN,North
2020-12-11T00:03:01Z,1607644981,2020,0,3,346.0021,346.0021,65.062,-9.154,990.3,3.51,-999.0,yes,yes,no,300234068241480,BD2GHI,AOML,BJARNI_SAEMUN,North
2020-12-11T01:00:02Z,1607648403,2020,1,0,346.0417,346.0417,65.061,-9.158,990.1,3.5,-999.0,yes,yes,no,300234068241480,BD2GHI,AOML,BJARNI_SAEMUN,North
2020-12-11T01:59:57Z,1607651997,2020,2,0,346.0833,346.0833,65.061,-9.164,990.2,3.5,-999.0,yes,yes,no,300234068241480,BD2GHI,AOML,BJARNI_SAEMUN,North
2020-12-11T03:00:00Z,1607655600,2020,3,0,346.125,346.125,65.063,-9.167,990.1,3.49,-999.0,yes,yes,no,300234068241480,BD2GHI,AOML,BJARNI_SAEMUN,North